Find Starlink 33606

NORAD ID: 63421 Int'l Des: 2025-065 Owner: SPXS Country: US Constellation: starlink operational
LEOCIRCULAR

Live Position

Loading 3D Globe...

About Starlink 33606

Description loading...

Upcoming Passes

Passes for default location (London). Set your location on the main map for personalized predictions.

Altitude History

Loading altitude history...

Two-Line Element Set

1 63421U 25065Y 26107.09217056 .00011795 00000-0 43742-3 0 9996
2 63421 43.0022 250.0879 0001235 289.5284 70.5434 15.27582191 58714
Epoch: Apr 17, 2026 • Age: 14 hours

Current Status

Altitude 492.9 km
Velocity 7.62 km/s
Sub-Earth Point -36.71°S, 107.3°E
Launch Date Mar 31, 2025
Age 1 years
Type internet

Technical Details

Classification Payload
Mass 575.00 kg
Dry Mass 530.00 kg
Total Mass 575.00 kg
Length 0.30 m
Diameter 4.10 m
Span 29.00 m
Shape Box + pan
Manufacturer SPXS
Bus Type Starlink V2MO
Phase Status In Orbit
Owner/State SPXS/US

Most Searched